Location: Home
(42.5358°N, 72.7383°W)
Time: 18:08:37
(UTC-05:00)

Tiros 1 - Pass Details

Date: 02 December 2021
Orbit: 629 x 664 km, 48.4° (Epoch: 18 January)

Event Time Altitude Azimuth Distance (km) Brightness Sun altitude
Rises 21:10:31 0° 276° (W) 2,935 - -52.7°
Reaches altitude 10° 21:12:57 10° 284° (WNW) 2,032 - -53.1°
Maximum altitude 21:17:23 41° 355° (N) 939 - -53.9°
Drops below altitude 10° 21:21:52 10° 66° (ENE) 2,055 - -54.7°
Sets 21:24:21 0° 74° (ENE) 2,972 - -55.1°
